{"data":{"norad_id":69403,"epoch":"2026-09-17T12:34:09.677568Z","epoch_age_seconds":291854,"freshness":"STALE","line1":"1 69403U 26125C   26260.52372312 -.01777842  00000+0 -31393+1 0  9995","line2":"2 69403  88.9894 270.5744 0009178 115.9164 244.2932 13.46850617 14441","mean_motion":13.46850617,"eccentricity":0.0009178,"inclination_deg":88.9894,"raan_deg":270.5744,"arg_perigee_deg":115.9164,"mean_anomaly_deg":244.2932,"bstar":-3.1393,"rev_number":1444,"period_min":106.91608867563,"perigee_km":1077.0197020054,"apogee_km":1090.71695899,"semimajor_km":7462.0053304977,"source":"CELESTRAK","updated_at":"2026-09-20T09:00:24.864906Z"}}